TimeMST,TemperatureF,Dew PointF,Humidity,Sea Level PressureIn,VisibilityMPH,Wind Direction,Wind SpeedMPH,Gust SpeedMPH,PrecipitationIn,Events,Conditions,WindDirDegrees,DateUTC
12:53 AM,12.0,3.9,70,30.40,4.0,Calm,Calm,-,0.00,Snow,Light Snow,0,2013-01-02 07:53:00
1:53 AM,12.9,3.9,67,30.38,3.0,Calm,Calm,-,0.00,Snow,Light Snow,0,2013-01-02 08:53:00
2:09 AM,14.0,3.2,62,30.23,3.0,Calm,Calm,-,0.00,Snow,Light Snow,0,2013-01-02 09:09:00
2:32 AM,14.0,5.0,67,30.23,3.0,Calm,Calm,-,0.00,Snow,Light Snow,0,2013-01-02 09:32:00
2:53 AM,14.0,5.0,67,30.34,3.0,Calm,Calm,-,0.00,Snow,Light Snow,0,2013-01-02 09:53:00
3:02 AM,14.0,6.8,73,30.23,2.5,Calm,Calm,-,0.00,Snow,Light Snow,0,2013-01-02 10:02:00
3:26 AM,14.0,5.0,67,30.22,3.0,Calm,Calm,-,0.00,Snow,Light Snow,0,2013-01-02 10:26:00
3:53 AM,14.0,5.0,67,30.40,4.0,Calm,Calm,-,0.00,Snow,Light Snow,0,2013-01-02 10:53:00
4:53 AM,10.9,3.0,70,30.45,8.0,Calm,Calm,-,0.00,,Overcast,0,2013-01-02 11:53:00
5:53 AM,9.0,-0.9,64,30.51,10.0,Calm,Calm,-,N/A,,Partly Cloudy,0,2013-01-02 12:53:00
6:53 AM,3.9,-4.0,70,30.56,10.0,Calm,Calm,-,N/A,,Overcast,0,2013-01-02 13:53:00
7:23 AM,-0.4,-7.6,72,30.23,8.0,NE,3.5,-,0.00,Snow,Light Snow,40,2013-01-02 14:23:00
7:46 AM,-2.2,-9.4,71,30.24,9.0,Calm,Calm,-,0.00,,Mostly Cloudy,0,2013-01-02 14:46:00
7:53 AM,-2.9,-9.9,72,30.59,10.0,ENE,3.5,-,0.00,,Mostly Cloudy,60,2013-01-02 14:53:00
8:53 AM,5.0,-4.0,66,30.52,10.0,Calm,Calm,-,N/A,,Clear,0,2013-01-02 15:53:00
9:53 AM,14.0,-0.0,54,30.41,10.0,Calm,Calm,-,N/A,,Clear,0,2013-01-02 16:53:00
10:02 AM,14.0,-0.4,53,30.25,2.5,Calm,Calm,-,N/A,,Haze,0,2013-01-02 17:02:00
10:15 AM,17.6,1.4,49,30.25,10.0,Calm,Calm,-,N/A,,Clear,0,2013-01-02 17:15:00
10:53 AM,-9999,-9999,N/A,30.25,10.0,Calm,Calm,-,N/A,,Clear,0,2013-01-02 17:53:00
11:53 AM,-9999,-9999,N/A,30.22,10.0,Calm,Calm,-,N/A,,Clear,0,2013-01-02 18:53:00
12:53 PM,-9999,-9999,N/A,30.22,10.0,Calm,Calm,-,N/A,,Clear,0,2013-01-02 19:53:00
1:53 PM,-9999,-9999,N/A,30.20,10.0,NE,4.6,-,N/A,,Clear,50,2013-01-02 20:53:00
2:53 PM,-9999,-9999,N/A,30.21,10.0,Calm,Calm,-,N/A,,Clear,0,2013-01-02 21:53:00
3:53 PM,-9999,-9999,N/A,30.22,10.0,Calm,Calm,-,N/A,,Mostly Cloudy,0,2013-01-02 22:53:00
4:53 PM,5.0,-0.0,80,30.49,10.0,Calm,Calm,-,N/A,,Clear,0,2013-01-02 23:53:00
5:53 PM,3.0,-0.0,87,30.52,10.0,Calm,Calm,-,N/A,,Clear,0,2013-01-03 00:53:00
6:53 PM,-2.9,-6.0,87,30.58,9.0,Calm,Calm,-,N/A,,Clear,0,2013-01-03 01:53:00
7:53 PM,-2.9,-7.1,82,30.64,10.0,Calm,Calm,-,N/A,,Clear,0,2013-01-03 02:53:00
8:53 PM,-9.0,-13.0,83,30.65,10.0,Calm,Calm,-,N/A,,Clear,0,2013-01-03 03:53:00
9:53 PM,-11.9,-17.0,78,30.64,10.0,ENE,3.5,-,N/A,,Clear,70,2013-01-03 04:53:00
10:53 PM,-11.0,-15.0,83,30.32,9.0,Calm,Calm,-,N/A,,Clear,0,2013-01-03 05:53:00
11:53 PM,-11.9,-15.0,86,30.34,10.0,Calm,Calm,-,N/A,,Clear,0,2013-01-03 06:53:00